Location: LDNL
(36.4545°S, 141.6685°E)
Time: 18:43:41
(UTC+10:00)

A-11 Canister half - Pass Details

Date: 01 February 2022
Orbit: 1527 x 1682 km, 47.3° (Epoch: 20 May)

Event Time Altitude Azimuth Distance (km) Brightness Sun altitude
Rises 21:28:05 0° 326° (NNW) 4,902 11.7 -8.9°
Reaches altitude 10° 21:31:18 10° 330° (NNW) 3,929 11.2 -9.5°
Maximum altitude 21:41:04 55° 44° (NE) 1,965 9.2 -11.1°
Drops below altitude 10° 21:50:50 10° 118° (ESE) 3,939 10.9 -12.8°
Sets 21:54:04 0° 122° (ESE) 4,916 11.4 -13.4°
